Cedar Rapids, IA

5:53 PM CST on November 18, 2019 (GMT -0600)
The Eastern Iowa Airport

Weather History for KCID - September, 2019

Change the Weather History Date:

Friday, September 6, 2019

  Actual Average Record
Temperature  
Mean Temperature 67 °F 67 °F  
Max Temperature 79 °F 78 °F 101 °F (1922)
Min Temperature 55 °F 55 °F 40 °F (1950)
Degree Days  
Heating Degree Days 0 2  
Month to date heating degree days 6 10  
Since 1 July heating degree days 14 29  
Cooling Degree Days 2 4  
Month to date cooling degree days 13 25  
Year to date cooling degree days 665 693  
Growing Degree Days 20 (Base 50)    
Moisture  
Dew Point 60 °F    
Average Humidity 74    
Maximum Humidity 100    
Minimum Humidity 48    
Precipitation  
Precipitation 0.00 in 0.12 in 1.66 in (1914)
Month to date precipitation 0.01 0.70  
Year to date precipitation 27.86 26.00  
Sea Level Pressure  
Sea Level Pressure 30.00 in    
Wind  
Wind Speed 10 mph (NNW)    
Max Wind Speed 22 mph    
Max Gust Speed 30 mph    
Visibility 10 miles    
Events      
T = Trace of Precipitation, MM = Missing Value Source: NWS Daily Summary

Daily Weather History Graph

Daily Weather History Graph

Search for Another Location

Airport or City:

Astronomy

Sep. 06, 2019 Rise Set
Actual Time 6:37 AM CDT 7:32 PM CDT
Civil Twilight 6:09 AM CDT 8:00 PM CDT
Nautical Twilight 5:35 AM CDT 8:34 PM CDT
Astronomical Twilight 5:00 AM CDT 9:09 PM CDT
Moon 2:53 PM CDT (9/6) No Moon Set
Length of Visible Light 13h 51m
Length of Day
12h 54m
First Quarter, 56% of the Moon is Illuminated
Sep 6
First Quarter
Sep 13
Full
Sep 21
Last Quarter
Sep 28
New
Oct 5
First Quarter

Hourly Weather History & Observations

Time (CDT) Temp. Dew Point Humidity Pressure Visibility Wind Dir Wind Speed Gust Speed Precip Events Conditions
12:52 AM 66.0 °F 64.0 °F 93% 29.92 in 10.0 mi South 8.1 mph - N/A   Scattered Clouds
1:52 AM 64.9 °F 64.0 °F 97% 29.91 in 10.0 mi South 3.5 mph - N/A   Clear
2:52 AM 63.0 °F 62.1 °F 97% 29.91 in 10.0 mi Variable 4.6 mph - N/A   Clear
3:52 AM 64.0 °F 64.0 °F 100% 29.91 in 8.0 mi WNW 6.9 mph - N/A   Clear
4:52 AM 64.9 °F 64.0 °F 97% 29.93 in 10.0 mi NNW 9.2 mph - N/A   Clear
5:52 AM 63.0 °F 62.1 °F 97% 29.94 in 10.0 mi NNW 8.1 mph - N/A   Clear
6:52 AM 61.0 °F 60.1 °F 97% 29.97 in 10.0 mi NNW 9.2 mph - N/A   Clear
7:52 AM 63.0 °F 60.1 °F 90% 29.99 in 10.0 mi NNW 11.5 mph - N/A   Clear
8:52 AM 66.0 °F 61.0 °F 84% 30.00 in 10.0 mi NNW 15.0 mph - N/A   Clear
9:52 AM 69.1 °F 60.1 °F 73% 30.01 in 10.0 mi NNW 15.0 mph 25.3 mph N/A   Clear
10:52 AM 73.0 °F 61.0 °F 66% 30.02 in 10.0 mi North 16.1 mph - N/A   Scattered Clouds
11:52 AM 75.0 °F 60.1 °F 60% 30.03 in 10.0 mi North 17.3 mph - N/A   Scattered Clouds
12:52 PM 75.9 °F 60.1 °F 58% 30.03 in 10.0 mi NNW 16.1 mph 29.9 mph N/A   Partly Cloudy
1:52 PM 77.0 °F 59.0 °F 54% 30.03 in 10.0 mi NW 16.1 mph 26.5 mph N/A   Clear
2:52 PM 78.1 °F 57.9 °F 50% 30.02 in 10.0 mi NNW 12.7 mph 24.2 mph N/A   Clear
3:52 PM 78.1 °F 57.9 °F 50% 30.01 in 10.0 mi NNW 17.3 mph - N/A   Clear
4:52 PM 78.1 °F 57.9 °F 50% 30.02 in 10.0 mi NNW 13.8 mph - N/A   Clear
5:52 PM 77.0 °F 57.0 °F 50% 30.02 in 10.0 mi North 11.5 mph - N/A   Clear
6:52 PM 73.9 °F 55.9 °F 53% 30.04 in 10.0 mi North 11.5 mph - N/A   Clear
7:52 PM 66.9 °F 57.0 °F 70% 30.05 in 10.0 mi North 4.6 mph - N/A   Clear
8:52 PM 64.9 °F 57.0 °F 75% 30.06 in 10.0 mi North 6.9 mph - N/A   Clear
9:52 PM 64.0 °F 57.0 °F 78% 30.07 in 10.0 mi North 5.8 mph - N/A   Clear
10:52 PM 63.0 °F 57.0 °F 81% 30.08 in 10.0 mi NNE 4.6 mph - N/A   Clear
11:52 PM 61.0 °F 57.0 °F 87% 30.09 in 10.0 mi Calm Calm - N/A   Clear